Weather History for KDEW - May, 2013

Change the Weather History Date:

Tuesday, May 14, 2013

  Actual Average Record
Temperature  
Mean Temperature 47 °F 52 °F  
Max Temperature 61 °F 66 °F 85 °F (2012)
Min Temperature 33 °F 37 °F 30 °F (2007)
Degree Days  
Heating Degree Days 18 13  
Month to date heating degree days 109 213  
Since 1 July heating degree days 6585 7024  
Cooling Degree Days 0 0  
Month to date cooling degree days 3 0  
Year to date cooling degree days 3 0  
Moisture  
Dew Point 33 °F    
Average Humidity 59    
Maximum Humidity 89    
Minimum Humidity 29    
Precipitation  
Precipitation 0.00 in 0.05 in 0.88 in (2001)
Month to date precipitation 0.23 0.73  
Year to date precipitation 5.47 8.63  
Sea Level Pressure  
Sea Level Pressure 30.12 in    
Wind  
Wind Speed 4 mph (South)    
Max Wind Speed 13 mph    
Max Gust Speed 22 mph    
Visibility 10 miles    
Events      
T = Trace of Precipitation, MM = Missing Value Source: NWS Daily Summary

Daily Weather History Graph

Daily Weather History Graph

Search for Another Location

Airport or City:

Trip Planner

Search our weather history database for the weather conditions in past years. The results will help you decide how hot, cold, wet, or windy it might be!

Date:

Astronomy

May. 14, 2013 Rise Set
Actual Time 5:11 AM PDT 8:20 PM PDT
Civil Twilight 4:35 AM PDT 8:58 PM PDT
Nautical Twilight 3:47 AM PDT 9:46 PM PDT
Astronomical Twilight 2:47 AM PDT 10:46 PM PDT
Moon 8:56 AM PDT (5/14) No Moon Set
Length of Visible Light 16h 23m
Length of Day
15h 09m
Waxing Crescent, 19% of the Moon is Illuminated
May 14
Waxing Crescent
May 17
First Quarter
May 24
Full
May 31
Last Quarter
Jun 8
New

Hourly Weather History & Observations

Time (PDT) Temp. Windchill Dew Point Humidity Pressure Visibility Wind Dir Wind Speed Gust Speed Precip Events Conditions
12:53 AM 45.0 °F 42.6 °F 27.0 °F 49% 30.08 in 10.0 mi Variable 4.6 mph - N/A   Clear
1:53 AM 41.0 °F 34.7 °F 30.0 °F 65% 30.10 in 10.0 mi South 10.4 mph - N/A   Clear
2:53 AM 41.0 °F 38.0 °F 28.9 °F 62% 30.13 in 10.0 mi East 4.6 mph - N/A   Clear
3:53 AM 39.9 °F 35.1 °F 30.9 °F 70% 30.15 in 10.0 mi SSE 6.9 mph - N/A   Clear
4:53 AM 37.9 °F 33.5 °F 30.9 °F 76% 30.15 in 10.0 mi SSE 5.8 mph - N/A   Clear
5:53 AM 39.0 °F 35.7 °F 33.1 °F 79% 30.16 in 10.0 mi South 4.6 mph - N/A   Clear
6:53 AM 43.0 °F 40.3 °F 33.1 °F 68% 30.17 in 10.0 mi South 4.6 mph - N/A   Clear
7:53 AM 44.1 °F - 33.1 °F 65% 30.17 in 10.0 mi Calm Calm - N/A   Clear
8:53 AM 46.9 °F - 35.1 °F 63% 30.15 in 10.0 mi Calm Calm - N/A   Clear
9:53 AM 48.9 °F - 35.1 °F 59% 30.16 in 10.0 mi South 4.6 mph - N/A   Clear
10:53 AM 52.0 °F - 37.0 °F 57% 30.16 in 10.0 mi SSE 8.1 mph - N/A   Partly Cloudy
11:53 AM 54.0 °F - 37.0 °F 53% 30.15 in 10.0 mi SSW 6.9 mph - N/A   Scattered Clouds
12:53 PM 55.0 °F - 34.0 °F 45% 30.14 in 10.0 mi South 8.1 mph - N/A   Mostly Cloudy
1:53 PM 57.0 °F - 34.0 °F 42% 30.13 in 10.0 mi SSW 8.1 mph - N/A   Partly Cloudy
2:53 PM 57.9 °F - 33.1 °F 39% 30.11 in 10.0 mi WSW 8.1 mph - N/A   Clear
3:53 PM 59.0 °F - 30.0 °F 33% 30.10 in 10.0 mi WSW 3.5 mph - N/A   Partly Cloudy
4:53 PM 59.0 °F - 30.9 °F 35% 30.09 in 10.0 mi Variable 5.8 mph - N/A   Clear
5:53 PM 60.1 °F - 28.9 °F 31% 30.08 in 10.0 mi SSE 3.5 mph - N/A   Clear
6:53 PM 59.0 °F - 28.0 °F 31% 30.06 in 10.0 mi SW 3.5 mph - N/A   Clear
7:53 PM 55.9 °F - 36.0 °F 47% 30.07 in 10.0 mi Calm Calm - N/A   Clear
8:53 PM 43.0 °F - 37.0 °F 80% 30.09 in 10.0 mi Calm Calm - N/A   Clear
9:53 PM 41.0 °F - 34.0 °F 76% 30.10 in 10.0 mi Calm Calm - N/A   Clear
10:53 PM 36.0 °F - 32.0 °F 86% 30.11 in 10.0 mi Calm Calm - N/A   Clear
11:53 PM 37.0 °F - 32.0 °F 82% 30.10 in 10.0 mi Calm Calm - N/A   Clear